Flag for Brazil Weather past 2 weeks in Campo Grande, Mato Grosso Do Sul, Brazil

Now
88 °F

Passing clouds.


Feels Like: 86 °F
Forecast: 71 / 95 °F
Wind: 14 mph from East

Location: Campo Grande Aeroporto

Current Time: Aug 31, 2015 at 9:30:54 AM

Latest Report: Aug 31, 2015 at 9:00 AM


Visibility: N/A

Pressure: 30.09 "Hg (28.40 "Hg at 516m altitude)

Humidity: 33%

Dew point: 55 °F

Location of Campo GrandeLocation

Historic Weather in Campo Grande — Graph

°F

Campo Grande temperature yesterday

Maximum temperature yesterday: 95 °F (at 2:00 PM)
Minimum temperature yesterday: 70 °F (at 3:00 AM)
Average temperature yesterday: 81 °F

Past Weeks' High & Low Weather Summary

 TemperatureHumidityPressure
High95 °F (Aug 26, 1:00 PM)100% (Aug 19, 3:00 AM)30.18 "Hg (Aug 19, 3:00 AM)
Low46 °F (Aug 27, 6:00 PM)24% (Aug 29, 3:00 PM)29.83 "Hg (Aug 26, 3:00 PM)
Average76 °F51%30.01 "Hg
* Reported Aug 16 8:00 AM — Aug 31 8:00 AM, Campo Grande, Weather by CustomWeather, © 2015

Note: Actual official high and low records may vary slightly from our data, if they occured in-between our weather recording intervals... More about our weather records

Advertising

Campo Grande weather history for previous 24 hours

 ConditionsComfort  
Time TempWeatherWind HumidityBarometerVisibility
8:00 AM
Mon, Aug 31
84 °FPassing clouds.14 mph37%30.09 "HgN/A
7:00 AM79 °FPassing clouds.13 mph45%30.07 "HgN/A
6:00 AM75 °FPassing clouds.9 mph50%30.04 "HgN/A
5:00 AM77 °FPassing clouds.3 mph47%30.04 "HgN/A
4:00 AM77 °FPassing clouds.13 mph47%30.01 "HgN/A
3:00 AM77 °FPassing clouds.10 mph47%30.01 "HgN/A
2:00 AM77 °FPassing clouds.9 mph47%30.04 "HgN/A
1:00 AM77 °FClear.10 mph47%30.04 "Hg10 mi
12:00 AM77 °FClear.8 mph47%30.07 "Hg10 mi
11:00 PM
Sun, Aug 30
75 °FClear.7 mph50%30.04 "Hg10 mi
10:00 PM79 °FClear.7 mph45%30.04 "Hg10 mi
9:00 PM77 °FClear.7 mph51%30.04 "Hg10 mi
8:00 PM81 °FClear.5 mph42%30.04 "Hg10 mi
7:00 PM84 °FClear.6 mph37%30.01 "Hg10 mi
5:00 PM93 °FClear.No wind26%30.01 "Hg10 mi
4:00 PM93 °FPassing clouds.6 mph26%30.01 "HgN/A
3:00 PM95 °FSunny.3 mph26%30.01 "Hg10 mi
2:00 PM95 °FPassing clouds.7 mph26%30.01 "HgN/A
1:00 PM93 °FPassing clouds.9 mph28%30.04 "HgN/A
12:00 PM91 °FSunny.9 mph32%30.07 "Hg10 mi
11:00 AM91 °FPassing clouds.13 mph30%30.09 "HgN/A
10:00 AM86 °FPassing clouds.16 mph33%30.09 "HgN/A
9:00 AM82 °FPassing clouds.16 mph35%30.09 "HgN/A
Weather by CustomWeather, © 2015

See weather overviewHow to use our weather pages